GW3838 Weather Reports


Display with metric or nautical units.
time (UTC)temp
F
wind
direction
speed
MPH
gust
MPH
rain 1hr
in
rain 24hr
in
rain mn
in
humidity
%
barometer
mb
20260509103355 63 177 1.0 2.0 0.00 0.00 0.00 99 1018.7
20260509102854 63 178 0.0 1.0 0.00 0.00 0.00 99 1018.8
20260509102352 63 184 2.0 3.0 0.00 0.00 0.00 99 1018.6
20260509101847 63 177 3.0 3.0 0.00 0.00 0.00 99 1018.5
20260509101343 63 199 3.0 3.0 0.00 0.00 0.00 99 1018.7
20260509100842 63 171 1.0 2.0 0.00 0.00 0.00 99 1018.8
20260509100339 63 179 1.0 3.0 0.00 0.00 0.00 98 1018.9
20260509095835 63 206 2.0 2.0 0.00 0.00 0.00 98 1018.8
20260509095332 63 186 1.0 3.0 0.00 0.00 0.00 98 1018.6
20260509094830 63 171 1.0 2.0 0.00 0.00 0.00 98 1018.4
20260509094326 63 182 1.0 2.0 0.00 0.00 0.00 98 1018.3
20260509093824 63 175 0.0 0.0 0.00 0.00 0.00 98 1018.3
20260509093321 63 175 0.0 0.0 0.00 0.00 0.00 98 1018.5
20260509092819 63 177 2.0 2.0 0.00 0.00 0.00 98 1018.3
20260509092317 63 187 3.0 3.0 0.00 0.00 0.00 98 1017.9
20260509091815 62 150 1.0 3.0 0.00 0.00 0.00 98 1018.0
20260509091311 63 152 4.0 5.0 0.00 0.00 0.00 98 1017.9
20260509090809 63 171 4.0 5.0 0.00 0.00 0.00 98 1017.8
20260509090306 62 173 3.0 3.0 0.00 0.00 0.00 98 1017.8
20260509085803 62 164 2.0 2.0 0.00 0.00 0.00 98 1018.1
20260509085300 63 152 1.0 1.0 0.00 0.00 0.00 98 1018.0
20260509084757 62 146 1.0 1.0 0.00 0.00 0.00 98 1018.0
20260509084254 63 148 1.0 2.0 0.00 0.00 0.00 98 1018.3
20260509083752 63 164 1.0 1.0 0.00 0.00 0.00 98 1018.6
20260509083248 63 164 0.0 1.0 0.00 0.00 0.00 98 1018.5
20260509082745 63 148 0.0 1.0 0.00 0.00 0.00 97 1018.8
20260509082241 63 147 0.0 1.0 0.00 0.00 0.00 97 1018.6
20260509081738 63 147 0.0 0.0 0.00 0.00 0.00 97 1018.8
20260509081236 63 147 0.0 1.0 0.00 0.00 0.00 97 1018.9
20260509080734 63 151 0.0 1.0 0.00 0.00 0.00 97 1018.6
20260509080231 63 166 0.0 2.0 0.00 0.00 0.00 97 1018.8
20260509075729 63 191 2.0 3.0 0.00 0.00 0.00 97 1018.6
20260509075227 63 163 1.0 5.0 0.00 0.00 0.00 97 1018.4
20260509074723 63 204 3.0 5.0 0.00 0.00 0.00 97 1018.4
20260509074221 63 202 5.0 6.0 0.00 0.00 0.00 97 1018.2
20260509073717 63 185 5.0 6.0 0.00 0.00 0.00 97 1018.1
20260509073213 63 168 6.0 7.0 0.00 0.00 0.00 97 1018.5
20260509072710 63 175 6.0 7.0 0.00 0.00 0.00 97 1018.7
20260509072207 64 163 3.0 5.0 0.00 0.00 0.00 97 1018.9
20260509071703 64 175 4.0 5.0 0.00 0.00 0.00 96 1019.2
20260509071200 64 160 1.0 2.0 0.00 0.00 0.00 96 1019.3
20260509070652 64 172 2.0 3.0 0.00 0.00 0.00 96 1019.2
20260509070148 64 167 0.0 1.0 0.00 0.00 0.00 96 1019.4
20260509065644 64 163 0.0 0.0 0.00 0.00 0.00 96 1019.5
20260509065140 64 203 3.0 5.0 0.00 0.00 0.00 96 1019.6
20260509064638 63 204 2.0 3.0 0.00 0.00 0.00 96 1019.5
20260509064136 64 194 3.0 3.0 0.00 0.00 0.00 96 1019.2
20260509063632 64 155 3.0 5.0 0.00 0.00 0.00 96 1019.2
20260509063128 64 164 2.0 2.0 0.00 0.00 0.00 96 1019.2
20260509062625 64 174 3.0 5.0 0.00 0.00 0.00 96 1019.3
20260509062117 64 193 2.0 2.0 0.00 0.00 0.00 96 1019.7
20260509061614 64 181 1.0 2.0 0.00 0.00 0.00 96 1019.5
20260509061111 64 156 0.0 0.0 0.00 0.00 0.00 96 1019.2
20260509060609 64 206 1.0 2.0 0.00 0.00 0.00 96 1019.4
20260509060104 64 207 3.0 6.0 0.00 0.00 0.00 96 1019.2
20260509055600 64 208 2.0 3.0 0.00 0.00 0.00 96 1019.1
20260509055056 64 186 5.0 7.0 0.00 0.00 0.00 96 1019.2
20260509054553 64 221 3.0 7.0 0.00 0.00 0.00 96 1019.3
20260509054051 64 205 4.0 9.0 0.00 0.00 0.00 96 1019.2
20260509053549 63 184 4.0 5.0 0.00 0.00 0.00 96 1019.7
20260509053046 63 191 4.0 6.0 0.00 0.00 0.00 96 1019.8
20260509052544 64 172 6.0 7.0 0.00 0.00 0.00 96 1019.8
20260509052042 64 187 4.0 6.0 0.00 0.00 0.00 95 1019.6
20260509051539 64 176 3.0 6.0 0.00 0.00 0.00 95 1019.9
20260509051036 64 183 5.0 6.0 0.00 0.00 0.00 95 1020.2
20260509050533 64 189 3.0 6.0 0.00 0.00 0.00 95 1020.5
20260509050029 64 186 3.0 6.0 0.00 0.00 0.00 95 1020.3
20260509045526 64 194 5.0 7.0 0.00 0.00 0.00 95 1020.4
20260509045023 64 184 1.0 6.0 0.00 0.00 0.00 95 1020.6
20260509044520 64 211 4.0 6.0 0.00 0.00 0.00 95 1020.6
20260509044013 64 188 6.0 10.0 0.00 0.00 0.00 95 1020.2
20260509043508 64 170 7.0 10.0 0.00 0.00 0.00 95 1019.8
20260509043005 64 164 6.0 7.0 0.00 0.00 0.00 94 1020.0
20260509042501 64 166 4.0 5.0 0.00 0.00 0.00 94 1020.5
20260509041957 64 123 1.0 5.0 0.00 0.00 0.00 94 1020.5
20260509041454 64 191 4.0 5.0 0.00 0.00 0.00 94 1021.1
20260509040952 64 153 5.0 6.0 0.00 0.00 0.00 93 1020.8
20260509040450 64 344 1.0 3.0 0.00 0.00 0.00 93 1021.3
20260509035946 64 96 3.0 6.0 0.00 0.00 0.00 92 1020.7
20260509035443 64 187 1.0 2.0 0.00 0.00 0.00 92 1021.5
20260509034939 65 172 0.0 2.0 0.00 0.00 0.00 92 1021.3
20260509034438 65 176 0.0 2.0 0.00 0.00 0.00 92 1021.5
20260509033934 65 188 2.0 2.0 0.00 0.00 0.00 92 1021.3
20260509033431 65 172 1.0 2.0 0.00 0.00 0.00 92 1021.6
20260509032928 65 159 4.0 6.0 0.00 0.00 0.00 91 1021.0
20260509032425 65 175 2.0 2.0 0.00 0.00 0.00 91 1021.7
20260509031923 65 172 2.0 5.0 0.00 0.00 0.00 91 1021.6
20260509031420 65 181 1.0 2.0 0.00 0.00 0.00 91 1021.6
20260509030917 65 222 3.0 3.0 0.00 0.00 0.00 91 1021.7
20260509030416 65 175 1.0 3.0 0.00 0.00 0.00 91 1021.5
20260509025912 65 193 3.0 3.0 0.00 0.00 0.00 91 1021.2
20260509025408 65 201 3.0 5.0 0.00 0.00 0.00 91 1021.0
20260509024903 65 178 4.0 6.0 0.00 0.00 0.00 91 1020.9
20260509024359 64 166 5.0 9.0 0.00 0.00 0.00 92 1020.0
20260509023857 65 150 4.0 6.0 0.00 0.00 0.00 91 1020.3
20260509023354 65 158 4.0 6.0 0.00 0.00 0.00 91 1020.8
20260509022850 65 175 4.0 7.0 0.00 0.00 0.00 91 1020.8
20260509022348 65 177 5.0 8.0 0.00 0.00 0.00 91 1021.3
20260509021844 65 175 7.0 8.0 0.00 0.00 0.00 91 1021.2
20260509021341 65 156 6.0 9.0 0.00 0.00 0.00 91 1021.2
20260509020839 65 169 5.0 8.0 0.00 0.00 0.00 91 1021.2
20260509020337 65 169 6.0 8.0 0.00 0.00 0.00 91 1021.3
20260509015834 66 147 4.0 7.0 0.00 0.00 0.00 90 1021.6
20260509015332 66 146 1.0 5.0 0.00 0.00 0.00 89 1021.8
20260509014828 66 174 5.0 6.0 0.00 0.00 0.00 87 1021.8
20260509014320 67 184 6.0 8.0 0.00 0.00 0.00 85 1021.8
20260509013817 68 157 4.0 9.0 0.00 0.00 0.00 83 1021.7
20260509013313 68 188 5.0 7.0 0.00 0.00 0.00 82 1022.0
20260509012809 68 194 5.0 8.0 0.00 0.00 0.00 82 1021.8
20260509012307 68 188 7.0 8.0 0.00 0.00 0.00 82 1021.4
20260509011803 68 190 5.0 6.0 0.00 0.00 0.00 82 1021.3
20260509011301 68 185 5.0 7.0 0.00 0.00 0.00 83 1021.1
20260509010758 67 175 2.0 2.0 0.00 0.00 0.00 83 1021.4
20260509010255 66 189 1.0 3.0 0.00 0.00 0.00 85 1021.2
20260509005752 66 180 0.0 2.0 0.00 0.00 0.00 87 1021.0
20260509005249 66 123 2.0 2.0 0.00 0.00 0.00 87 1020.9
20260509004743 67 122 2.0 2.0 0.00 0.00 0.00 87 1020.9
20260509004241 67 120 1.0 1.0 0.00 0.00 0.00 86 1020.9
20260509003739 67 120 0.0 0.0 0.00 0.00 0.00 85 1020.7
20260509003236 66 120 0.0 0.0 0.00 0.00 0.00 85 1020.5
20260509002734 67 120 1.0 1.0 0.00 0.00 0.00 85 1020.5
20260509002231 67 120 0.0 0.0 0.00 0.00 0.00 85 1020.6
20260509001728 68 120 0.0 1.0 0.00 0.00 0.00 84 1020.4
20260509001223 68 120 0.0 0.0 0.00 0.00 0.00 83 1020.5
20260509000717 68 120 0.0 0.0 0.00 0.00 0.00 82 1020.5
20260509000214 68 120 0.0 1.0 0.00 0.00 0.00 81 1020.3
20260508235711 68 119 1.0 1.0 0.00 0.00 0.00 79 1020.6
20260508235207 68 119 0.0 1.0 0.00 0.00 0.00 77 1020.5
20260508234705 68 119 1.0 1.0 0.00 0.00 0.00 77 1020.8
20260508234200 69 119 1.0 1.0 0.00 0.00 0.00 76 1020.5
20260508233654 69 119 1.0 1.0 0.00 0.00 0.00 75 1020.3
20260508233152 69 119 1.0 1.0 0.00 0.00 0.00 76 1020.2
20260508232649 69 120 1.0 1.0 0.00 0.00 0.00 76 1020.2
20260508232145 70 120 1.0 1.0 0.00 0.00 0.00 74 1020.1
20260508231643 70 120 1.0 1.0 0.00 0.00 0.00 72 1019.9
20260508231140 70 119 0.0 1.0 0.00 0.00 0.00 72 1020.0
20260508230637 71 119 1.0 1.0 0.00 0.00 0.00 71 1019.9
20260508230133 71 119 0.0 0.0 0.00 0.00 0.00 72 1020.0
20260508225631 72 119 0.0 1.0 0.00 0.00 0.00 72 1019.9
20260508225127 71 119 0.0 1.0 0.00 0.00 0.00 69 1019.7
20260508224625 71 119 0.0 0.0 0.00 0.00 0.00 68 1019.8
20260508224122 72 119 0.0 1.0 0.00 0.00 0.00 68 1019.9
20260508223620 72 118 0.0 0.0 0.00 0.00 0.00 67 1019.8
20260508223117 72 118 0.0 1.0 0.00 0.00 0.00 68 1019.8
20260508222614 72 118 0.0 1.0 0.00 0.00 0.00 67 1019.8
20260508222111 72 118 0.0 1.0 0.00 0.00 0.00 67 1019.6
20260508221607 72 122 1.0 1.0 0.00 0.00 0.00 66 1019.7
20260508221103 73 109 1.0 2.0 0.00 0.00 0.00 64 1019.9
20260508220600 73 120 0.0 1.0 0.00 0.00 0.00 64 1019.8
20260508220056 73 122 1.0 1.0 0.00 0.00 0.00 62 1019.9
20260508215553 74 134 0.0 1.0 0.00 0.00 0.00 62 1020.1
20260508215050 73 175 2.0 2.0 0.00 0.00 0.00 58 1019.9
20260508214547 73 153 1.0 2.0 0.00 0.00 0.00 60 1019.7
20260508214043 73 151 0.0 2.0 0.00 0.00 0.00 60 1019.6
20260508213541 74 149 0.0 1.0 0.00 0.00 0.00 60 1020.0
20260508213037 73 182 1.0 2.0 0.00 0.00 0.00 60 1019.9
20260508212533 73 180 3.0 5.0 0.00 0.00 0.00 59 1020.0
20260508212030 73 153 1.0 2.0 0.00 0.00 0.00 59 1019.8
20260508211525 73 111 2.0 3.0 0.00 0.00 0.00 59 1019.9
20260508211022 74 144 2.0 2.0 0.00 0.00 0.00 59 1019.7
20260508210518 73 182 3.0 3.0 0.00 0.00 0.00 60 1019.7
20260508210016 73 142 2.0 5.0 0.00 0.00 0.00 59 1019.8
20260508205512 73 138 0.0 2.0 0.00 0.00 0.00 59 1020.0
20260508205008 73 152 2.0 3.0 0.00 0.00 0.00 59 1019.8
20260508204501 73 139 2.0 3.0 0.00 0.00 0.00 58 1020.0
20260508203955 73 147 5.0 5.0 0.00 0.00 0.00 58 1019.9
20260508203452 73 151 3.0 5.0 0.00 0.00 0.00 58 1020.1
20260508202948 73 183 4.0 5.0 0.00 0.00 0.00 58 1020.0
20260508202445 73 157 5.0 6.0 0.00 0.00 0.00 58 1020.1
20260508201942 73 186 2.0 3.0 0.00 0.00 0.00 57 1020.2
20260508201439 73 138 3.0 3.0 0.00 0.00 0.00 56 1020.5
20260508200935 73 132 1.0 3.0 0.00 0.00 0.00 57 1020.6
20260508200432 73 125 3.0 3.0 0.00 0.00 0.00 57 1020.9
20260508195927 73 160 1.0 2.0 0.00 0.00 0.00 56 1020.8
20260508195425 73 155 2.0 3.0 0.00 0.00 0.00 56 1021.0
20260508194921 74 142 2.0 2.0 0.00 0.00 0.00 55 1021.0
20260508194418 73 139 0.0 1.0 0.00 0.00 0.00 56 1021.0
20260508193915 72 107 1.0 3.0 0.00 0.00 0.00 56 1020.9
20260508193412 72 125 3.0 3.0 0.00 0.00 0.00 57 1021.2
20260508192908 72 123 2.0 2.0 0.00 0.00 0.00 58 1021.1
20260508192405 72 157 1.0 2.0 0.00 0.00 0.00 57 1021.3
20260508191902 72 174 3.0 5.0 0.00 0.00 0.00 57 1021.1
20260508191359 72 183 5.0 7.0 0.00 0.00 0.00 56 1021.3
20260508190850 72 144 2.0 5.0 0.00 0.00 0.00 57 1021.3
20260508190347 72 144 7.0 8.0 0.00 0.00 0.00 58 1021.0
20260508185843 72 171 3.0 3.0 0.00 0.00 0.00 57 1021.2
20260508185341 72 155 3.0 6.0 0.00 0.00 0.00 57 1021.5
20260508184838 72 101 3.0 8.0 0.00 0.00 0.00 59 1021.4
20260508184336 72 127 4.0 6.0 0.00 0.00 0.00 56 1021.5
20260508183832 72 145 3.0 3.0 0.00 0.00 0.00 55 1021.7
20260508183329 72 142 1.0 6.0 0.00 0.00 0.00 55 1021.3
20260508182824 72 86 3.0 5.0 0.00 0.00 0.00 56 1021.7
20260508182322 72 84 1.0 2.0 0.00 0.00 0.00 56 1021.6
20260508181817 71 80 3.0 5.0 0.00 0.00 0.00 58 1021.7
20260508181314 71 100 3.0 3.0 0.00 0.00 0.00 58 1021.7
20260508180811 71 169 2.0 5.0 0.00 0.00 0.00 56 1021.6
20260508180308 72 102 2.0 6.0 0.00 0.00 0.00 56 1021.7
20260508175804 73 80 3.0 3.0 0.00 0.00 0.00 54 1021.9
20260508175300 73 69 1.0 2.0 0.00 0.00 0.00 55 1021.9
20260508174758 72 94 3.0 5.0 0.00 0.00 0.00 55 1021.8
20260508174255 72 93 4.0 6.0 0.00 0.00 0.00 54 1022.1
20260508173747 73 117 3.0 6.0 0.00 0.00 0.00 54 1022.1
20260508173243 73 145 5.0 7.0 0.00 0.00 0.00 55 1022.3
20260508172739 72 69 2.0 7.0 0.00 0.00 0.00 55 1022.1
20260508172237 72 116 3.0 3.0 0.00 0.00 0.00 55 1022.2
20260508171733 71 179 3.0 6.0 0.00 0.00 0.00 56 1022.3
20260508171229 72 87 5.0 10.0 0.00 0.00 0.00 55 1022.7
20260508170726 71 116 1.0 2.0 0.00 0.00 0.00 56 1022.6
20260508170224 71 129 5.0 8.0 0.00 0.00 0.00 56 1022.4
20260508165721 71 96 4.0 7.0 0.00 0.00 0.00 56 1022.5
20260508165218 71 87 3.0 7.0 0.00 0.00 0.00 58 1022.8
20260508164714 70 136 5.0 7.0 0.00 0.00 0.00 55 1022.6
20260508164210 70 161 4.0 9.0 0.00 0.00 0.00 56 1022.5
20260508163709 70 110 7.0 10.0 0.00 0.00 0.00 58 1022.7
20260508163206 70 156 3.0 8.0 0.00 0.00 0.00 58 1022.8
20260508162701 70 153 7.0 11.0 0.00 0.00 0.00 58 1022.8
20260508162159 69 159 7.0 8.0 0.00 0.00 0.00 59 1023.0
20260508161656 71 104 4.0 8.0 0.00 0.00 0.00 59 1023.0
20260508161153 70 116 1.0 6.0 0.00 0.00 0.00 61 1023.1
20260508160651 69 123 6.0 8.0 0.00 0.00 0.00 61 1023.0
20260508160149 70 125 7.0 9.0 0.00 0.00 0.00 58 1023.0
20260508155646 70 88 3.0 5.0 0.00 0.00 0.00 61 1023.0
20260508155142 69 115 3.0 8.0 0.00 0.00 0.00 62 1023.0
20260508154640 68 55 7.0 14.0 0.00 0.00 0.00 61 1023.2
20260508154136 68 111 9.0 10.0 0.00 0.00 0.00 61 1023.2
20260508153633 69 101 7.0 9.0 0.00 0.00 0.00 60 1023.4
20260508153130 69 48 4.0 6.0 0.00 0.00 0.00 63 1023.6
20260508152627 68 120 7.0 9.0 0.00 0.00 0.00 62 1023.7
20260508152121 68 87 2.0 5.0 0.00 0.00 0.00 64 1023.4
20260508151619 68 93 7.0 9.0 0.00 0.00 0.00 65 1023.5
20260508151116 67 80 5.0 9.0 0.00 0.00 0.00 65 1023.6
20260508150613 66 88 5.0 8.0 0.00 0.00 0.00 66 1023.7
20260508150109 66 77 5.0 7.0 0.00 0.00 0.00 67 1023.6
20260508145605 66 83 4.0 9.0 0.00 0.00 0.00 68 1023.6
20260508145102 66 78 3.0 10.0 0.00 0.00 0.00 68 1023.8
20260508144559 66 91 3.0 9.0 0.00 0.00 0.00 69 1023.7
20260508144051 66 85 1.0 5.0 0.00 0.00 0.00 70 1023.7
20260508143548 66 125 5.0 6.0 0.00 0.00 0.00 69 1023.7
20260508143045 65 69 3.0 9.0 0.00 0.00 0.00 71 1023.6
20260508142542 66 67 2.0 6.0 0.00 0.00 0.00 70 1023.8
20260508142038 65 72 2.0 6.0 0.00 0.00 0.00 72 1023.8
20260508141535 66 90 2.0 3.0 0.00 0.00 0.00 72 1023.5
20260508141033 65 83 2.0 7.0 0.00 0.00 0.00 71 1023.3
20260508140530 65 120 1.0 2.0 0.00 0.00 0.00 73 1023.4
20260508140026 64 78 4.0 9.0 0.00 0.00 0.00 72 1023.6
20260508135522 64 101 8.0 9.0 0.00 0.00 0.00 72 1023.6
20260508135018 64 120 4.0 9.0 0.00 0.00 0.00 73 1023.6
20260508134515 64 101 3.0 5.0 0.00 0.00 0.00 75 1023.4
20260508134012 64 117 5.0 8.0 0.00 0.00 0.00 75 1023.4
20260508133509 64 34 9.0 14.0 0.00 0.00 0.00 77 1023.4
20260508133006 64 118 5.0 10.0 0.00 0.00 0.00 77 1023.1
20260508132504 64 88 3.0 6.0 0.00 0.00 0.00 78 1023.1
20260508132000 64 99 1.0 8.0 0.00 0.00 0.00 78 1023.2
20260508131455 64 68 3.0 10.0 0.00 0.00 0.00 79 1022.9
20260508130952 64 68 1.0 7.0 0.00 0.00 0.00 81 1022.9
20260508130450 63 90 3.0 11.0 0.00 0.00 0.00 81 1022.9
20260508125945 63 132 3.0 6.0 0.00 0.00 0.00 84 1022.7
20260508125441 62 113 3.0 5.0 0.00 0.00 0.00 84 1022.8
20260508124940 62 91 4.0 5.0 0.00 0.00 0.00 85 1022.8
20260508124437 62 96 4.0 6.0 0.00 0.00 0.00 86 1023.0
20260508123934 62 75 3.0 5.0 0.00 0.00 0.00 86 1022.2
20260508123433 62 77 3.0 5.0 0.00 0.00 0.00 87 1022.6
20260508122929 62 110 1.0 3.0 0.00 0.00 0.00 88 1022.6
20260508122426 62 72 2.0 2.0 0.00 0.00 0.00 88 1022.2
20260508121923 61 103 2.0 3.0 0.00 0.00 0.00 89 1022.4
20260508121421 61 127 1.0 2.0 0.00 0.00 0.00 89 1022.2
20260508120919 61 103 1.0 3.0 0.00 0.00 0.00 89 1021.8
20260508120416 61 96 2.0 2.0 0.00 0.00 0.00 90 1022.1
20260508115914 61 101 1.0 2.0 0.00 0.00 0.00 90 1022.2
20260508115412 61 137 1.0 2.0 0.00 0.00 0.00 90 1022.2
20260508114908 61 74 2.0 2.0 0.00 0.00 0.00 90 1022.0
20260508114405 61 54 1.0 2.0 0.00 0.00 0.00 90 1021.8
20260508113901 61 125 0.0 1.0 0.00 0.00 0.00 89 1021.8
20260508113359 61 98 2.0 2.0 0.00 0.00 0.00 89 1021.8
20260508112856 61 119 0.0 1.0 0.00 0.00 0.00 89 1021.5
20260508112353 61 96 1.0 2.0 0.00 0.00 0.00 89 1021.3
20260508111849 61 101 1.0 2.0 0.00 0.00 0.00 89 1021.5
20260508111346 61 98 2.0 2.0 0.00 0.00 0.00 88 1021.5
20260508110843 61 123 0.0 1.0 0.00 0.00 0.00 88 1021.3
20260508110341 61 122 0.0 1.0 0.00 0.00 0.00 88 1021.3
20260508105841 61 106 1.0 2.0 0.00 0.00 0.00 88 1021.2
20260508105338 61 83 2.0 3.0 0.00 0.00 0.00 88 1021.0
20260508104835 61 78 2.0 2.0 0.00 0.00 0.00 87 1021.1
20260508104331 61 64 2.0 2.0 0.00 0.00 0.00 87 1020.8
20260508103829 61 101 1.0 2.0 0.00 0.00 0.00 87 1020.6